Wind_Speed
15 15 15 15 15 15 14 14 14 14 13 13 12 12 11 11 10 10 10 9 9 8 7 6 6 6 6 7 9 10 10 10 11 12 12 12 12 11 11 10 9 9 9
17 17 17 16 17 16 16 16 16 16 15 14 14 13 13 12 12 12 11 11 10 10 9 8 7 7 7 8 9 10 11 12 13 12 11 12 12 12 11 11 11 10 10
18 19 19 18 18 18 18 17 17 17 17 16 16 15 15 14 14 14 13 13 12 12 12 10 10 9 9 9 9 9 10 11 12 12 12 12 12 12 12 11 11 11 11
21 20 20 19 19 19 20 19 19 19 19 18 18 17 17 17 17 16 16 15 14 14 13 13 12 11 10 10 10 9 10 11 12 12 12 12 12 12 13 12 12 11 11
22 21 22 21 21 21 21 21 21 21 20 20 20 19 19 18 18 18 18 18 17 16 15 15 14 13 12 11 11 10 11 12 13 13 13 13 13 13 13 13 13 13 12
22 22 23 23 22 22 22 22 22 22 22 22 22 22 21 20 20 20 20 20 19 18 17 17 16 15 14 13 13 13 13 13 13 13 14 14 15 14 14 14 14 14 14
23 24 24 24 24 24 24 24 24 24 23 24 24 24 24 23 22 22 22 21 21 20 19 19 18 17 16 16 15 14 14 14 15 15 15 16 16 16 15 15 16 16 15
25 26 26 26 25 25 25 25 26 26 26 25 25 25 25 25 24 24 23 23 23 22 21 21 20 20 19 18 18 17 17 17 17 17 17 17 18 17 17 17 17 17 17
26 27 27 28 27 27 27 27 27 27 27 27 26 26 27 26 26 26 25 25 24 24 24 24 23 22 21 21 20 20 19 19 19 19 19 19 19 19 19 18 19 19 19
26 28 28 29 29 29 29 28 28 28 28 28 27 27 27 28 28 28 28 27 27 26 26 26 25 24 23 22 22 22 22 21 21 21 21 21 22 21 21 21 21 21 21
27 27 29 30 30 30 30 30 30 30 29 29 28 29 29 29 29 30 30 29 29 28 28 27 26 26 25 24 25 25 24 24 23 23 23 23 24 23 23 23 23 23 23
29 28 29 29 30 31 31 32 31 31 31 31 31 30 30 30 31 31 31 31 31 30 29 29 28 28 27 27 27 26 26 25 25 26 26 26 26 26 26 26 26 26 26
31 31 31 31 30 31 31 32 33 33 33 32 32 32 32 32 32 32 32 32 32 32 31 31 30 29 29 28 28 28 28 28 28 27 28 28 28 28 28 28 29 29 29
32 33 33 34 33 33 33 34 34 35 34 34 34 34 34 34 34 34 34 34 34 33 33 32 32 31 31 31 31 31 30 30 30 30 30 30 30 31 31 31 31 31 30
33 34 35 35 36 35 35 34 35 36 36 36 35 35 36 36 37 37 37 36 36 36 36 34 34 34 34 34 33 34 34 33 33 33 32 32 32 33 33 33 33 33 33
36 36 36 37 37 36 36 36 36 36 37 37 37 37 37 37 38 38 39 39 38 38 38 37 36 36 36 37 36 37 37 36 36 35 35 35 35 35 35 36 35 35 35
37 37 37 37 38 38 38 38 38 38 38 38 39 39 38 38 39 40 40 40 40 40 40 39 39 39 38 38 38 38 39 39 38 38 38 37 37 38 38 38 38 37 37
37 37 38 38 39 39 39 39 39 40 40 39 39 39 40 39 39 40 41 41 41 41 41 41 41 41 40 40 40 40 40 41 41 40 40 40 40 40 40 41 40 40 40
37 38 38 39 39 40 40 40 41 41 41 41 40 41 41 41 41 41 41 42 43 43 43 43 43 43 42 42 42 42 42 43 42 42 42 42 42 42 42 43 43 43 43
38 38 38 39 39 40 41 41 41 42 42 42 42 41 41 42 43 43 43 43 44 44 44 44 44 44 44 44 45 45 45 45 45 45 44 44 44 44 44 45 45 45 45
38 39 39 39 39 40 40 41 41 42 42 42 43 43 42 43 44 44 44 44 45 45 45 45 45 46 46 46 46 46 47 46 47 47 48 48 48 47 47 47 47 46 47
38 39 39 40 40 40 40 41 42 43 43 43 43 44 44 44 44 45 45 45 45 46 47 46 46 47 47 47 48 48 47 47 48 49 49 49 49 49 49 50 49 49 49
38 38 40 40 40 41 41 42 42 43 43 44 44 44 45 44 44 45 45 46 46 47 47 48 48 48 48 48 49 49 49 49 49 49 49 49 50 50 50 50 51 51 51
37 38 39 40 41 41 42 42 43 44 44 44 44 45 45 45 45 46 46 46 46 47 48 48 48 48 48 48 49 49 49 49 50 50 49 50 50 51 51 52 52 53 53
36 38 38 40 41 42 43 43 44 44 44 44 45 45 46 46 46 45 47 47 46 46 47 47 48 48 49 48 48 49 50 50 51 51 50 50 51 52 52 53 53 54 54
36 37 38 39 41 42 42 43 44 44 45 45 45 45 46 46 46 46 47 48 48 48 48 48 48 49 49 48 48 49 49 50 51 51 51 51 51 52 53 53 54 54 54
Wind_Direction
241 240 240 240 240 239 240 240 240 241 242 242 243 243 241 242 243 244 247 250 251 249 249 248 243 235 232 227 223 222 222 223 219 216 213 211 209 208 208 207 207 210 218
243 243 243 242 242 241 242 242 242 242 241 241 243 244 242 241 243 246 246 248 250 251 253 252 249 243 240 235 232 229 222 219 214 212 211 211 214 217 217 217 219 219 223
244 243 244 242 242 242 243 244 243 242 242 242 243 244 244 243 242 245 244 246 249 251 252 253 251 246 242 241 239 232 223 216 211 209 212 215 219 221 221 223 225 226 228
245 245 245 245 244 244 244 244 244 242 242 243 244 245 245 245 244 244 243 245 247 250 251 252 253 251 248 243 239 230 224 218 212 213 217 220 222 225 227 227 229 233 234
246 247 248 247 247 246 245 245 245 244 243 244 244 245 245 245 246 246 246 247 248 250 251 250 251 252 252 250 244 232 224 220 218 219 221 223 225 227 229 231 234 236 239
247 248 249 248 247 246 246 246 246 246 245 246 246 245 245 246 247 248 248 248 249 250 251 251 250 251 252 252 249 241 231 226 226 226 226 226 228 231 233 235 238 241 244
248 249 250 250 249 248 246 247 247 247 247 247 248 247 247 246 248 249 249 249 250 250 250 252 252 251 253 253 250 248 242 238 235 235 234 233 233 235 237 238 240 243 245
249 250 250 251 250 249 248 248 249 249 248 249 250 249 248 248 248 248 248 250 250 250 250 251 252 253 253 253 252 250 247 245 243 241 240 238 238 239 242 244 245 245 247
250 250 250 250 250 250 249 249 249 249 250 250 250 249 249 249 248 248 249 250 250 251 251 252 252 253 254 253 252 251 248 246 244 243 243 243 243 244 245 247 247 247 248
251 251 251 250 250 250 250 249 249 249 250 250 249 249 249 249 249 249 250 250 251 252 253 253 253 254 254 253 253 251 250 249 247 246 246 246 246 247 248 249 249 249 250
252 253 251 250 249 249 249 249 249 250 250 250 249 249 249 248 248 249 250 250 250 252 254 253 254 255 255 255 254 253 253 252 251 249 248 248 248 249 251 251 252 252 253
254 253 252 251 250 249 249 249 249 249 250 249 249 249 249 249 249 250 250 252 253 253 253 253 254 255 255 255 255 254 253 253 253 252 250 250 251 252 252 253 253 254 255
255 254 254 253 252 251 250 250 249 249 250 250 250 250 249 249 250 251 251 252 252 253 252 253 255 255 254 254 255 254 254 254 254 254 253 252 253 253 254 254 255 256 256
256 254 254 253 252 252 252 251 250 250 250 250 251 250 250 250 250 251 252 252 253 254 253 254 255 254 254 254 255 254 254 254 255 255 254 254 254 255 256 256 256 257 257
255 255 254 254 253 253 253 253 251 251 250 250 250 250 251 250 250 251 252 251 251 252 253 253 253 254 255 255 255 254 254 254 254 255 255 255 256 256 256 257 258 258 257
254 254 255 255 255 254 254 253 252 252 252 251 252 250 251 251 251 252 251 252 252 252 253 253 252 253 254 255 256 255 254 255 255 255 256 257 257 257 257 258 259 259 258
255 255 255 255 255 254 253 253 252 252 252 252 252 252 252 253 251 251 252 251 252 253 253 253 253 253 253 254 255 254 255 255 256 256 257 257 258 259 259 259 259 260 259
256 255 255 255 254 253 253 253 253 253 253 253 253 252 253 254 254 252 252 251 252 252 253 253 254 254 254 254 254 255 255 255 256 257 258 258 258 258 259 259 259 259 259
256 256 256 256 255 253 252 252 253 253 253 253 253 252 252 253 254 253 253 253 252 253 254 255 256 255 255 254 255 256 256 255 255 256 258 258 258 258 259 259 259 259 260
256 255 255 255 255 254 253 253 253 253 254 253 253 253 252 253 253 254 254 254 253 254 254 255 256 256 256 256 257 257 257 256 256 255 256 257 258 259 259 259 259 259 260
257 255 254 254 254 255 254 254 253 253 253 253 253 253 253 253 253 254 255 255 255 255 255 255 256 257 258 258 258 258 258 258 258 257 257 258 258 259 259 259 260 260 260
258 256 255 255 255 255 255 255 254 254 254 254 254 254 253 254 254 254 254 255 255 256 256 256 257 258 259 260 260 260 259 259 259 259 258 258 258 258 259 259 260 261 261
259 257 256 256 256 255 255 255 255 254 254 255 254 254 255 256 256 257 256 255 255 255 256 257 258 259 259 260 260 260 261 261 261 260 260 259 259 259 260 259 260 260 261
260 258 257 257 256 256 256 256 255 255 254 254 254 254 255 256 256 257 257 257 257 257 257 258 258 259 260 260 261 261 262 262 261 260 260 261 261 262 262 261 261 261 262
260 259 259 258 258 257 256 256 256 255 254 254 255 255 255 256 256 257 258 257 256 257 258 259 259 259 260 260 261 262 262 262 261 260 259 261 261 262 262 262 262 262 262
262 261 260 259 259 258 257 256 256 255 254 254 255 256 256 256 256 257 259 259 258 258 259 259 259 259 260 260 261 261 262 263 263 262 261 261 261 262 262 262 262 262 262
Height
5842 5843 5843 5844 5845 5846 5846 5847 5848 5849 5850 5851 5851 5852 5852 5853 5853 5854 5854 5854 5854 5854 5853 5853 5853 5853 5852 5853 5853 5854 5854 5855 5857 5858 5859 5861 5862 5863 5864 5865 5866 5867 5868
5840 5840 5841 5842 5842 5843 5844 5845 5846 5847 5848 5849 5849 5850 5851 5851 5852 5852 5852 5852 5853 5853 5852 5852 5852 5852 5852 5852 5852 5852 5852 5852 5854 5856 5858 5859 5861 5862 5863 5864 5865 5866 5866
5836 5837 5838 5839 5840 5841 5841 5842 5843 5844 5845 5846 5847 5848 5848 5849 5849 5850 5850 5851 5851 5851 5851 5851 5851 5851 5851 5851 5850 5849 5849 5850 5852 5854 5856 5858 5859 5860 5861 5862 5863 5864 5865
5833 5834 5835 5836 5837 5837 5838 5839 5840 5841 5842 5843 5844 5845 5845 5846 5846 5847 5848 5849 5849 5849 5850 5850 5850 5850 5850 5850 5849 5848 5848 5849 5851 5853 5855 5856 5858 5859 5860 5861 5862 5863 5863
5829 5830 5831 5832 5833 5834 5835 5836 5837 5838 5839 5840 5841 5842 5842 5843 5844 5845 5846 5846 5847 5847 5847 5848 5848 5848 5849 5849 5849 5848 5848 5849 5851 5852 5853 5855 5856 5857 5858 5859 5860 5861 5862
5825 5826 5827 5828 5829 5830 5831 5832 5833 5834 5835 5836 5837 5838 5839 5840 5841 5842 5843 5843 5844 5844 5845 5846 5846 5847 5847 5847 5847 5847 5848 5849 5850 5851 5852 5853 5854 5855 5856 5857 5858 5859 5860
5820 5821 5822 5823 5824 5825 5827 5828 5829 5830 5831 5832 5833 5834 5835 5836 5837 5838 5839 5840 5841 5841 5842 5843 5843 5844 5844 5845 5845 5846 5846 5847 5848 5849 5850 5851 5852 5853 5854 5855 5856 5857 5857
5814 5816 5817 5818 5819 5820 5822 5823 5824 5825 5826 5828 5829 5830 5831 5832 5833 5834 5835 5836 5837 5838 5839 5839 5840 5841 5841 5842 5842 5843 5844 5845 5846 5847 5848 5849 5850 5850 5851 5852 5853 5854 5855
5809 5810 5811 5813 5814 5815 5816 5818 5819 5820 5821 5823 5824 5825 5826 5827 5828 5829 5830 5832 5833 5834 5835 5835 5836 5837 5838 5838 5839 5840 5840 5841 5842 5843 5844 5845 5846 5847 5848 5849 5850 5851 5851
5803 5804 5805 5806 5808 5810 5811 5812 5813 5815 5816 5817 5818 5820 5821 5822 5823 5824 5825 5827 5828 5829 5830 5831 5832 5832 5834 5834 5835 5836 5837 5838 5839 5840 5841 5842 5843 5843 5844 5845 5846 5847 5848
5797 5798 5799 5800 5801 5803 5805 5806 5807 5809 5810 5811 5813 5814 5815 5817 5818 5819 5820 5821 5822 5824 5825 5826 5827 5828 5829 5830 5831 5832 5833 5834 5834 5835 5836 5837 5838 5839 5840 5841 5842 5842 5843
5790 5791 5792 5793 5795 5796 5798 5799 5801 5802 5804 5805 5807 5808 5809 5811 5812 5813 5814 5815 5816 5818 5819 5820 5821 5822 5823 5824 5825 5827 5828 5829 5830 5831 5831 5832 5833 5834 5835 5836 5837 5837 5838
5782 5783 5785 5786 5787 5789 5790 5792 5793 5795 5797 5798 5800 5801 5803 5804 5806 5807 5808 5809 5810 5812 5813 5814 5815 5816 5817 5818 5820 5821 5822 5823 5824 5825 5826 5827 5828 5829 5829 5830 5831 5832 5833
5774 5776 5777 5778 5780 5781 5783 5784 5786 5787 5789 5791 5793 5794 5796 5797 5799 5800 5801 5803 5804 5805 5806 5808 5809 5810 5811 5812 5813 5814 5815 5816 5818 5819 5820 5821 5822 5823 5823 5824 5825 5826 5827
5766 5767 5768 5770 5771 5773 5775 5776 5778 5779 5781 5783 5785 5786 5788 5789 5791 5793 5794 5795 5796 5798 5799 5801 5802 5803 5804 5805 5806 5807 5808 5809 5811 5812 5813 5814 5815 5816 5816 5817 5818 5819 5820
5757 5759 5760 5761 5763 5764 5766 5768 5769 5771 5773 5775 5776 5778 5779 5781 5782 5784 5786 5787 5788 5790 5791 5793 5794 5795 5796 5797 5798 5799 5800 5801 5803 5804 5805 5806 5807 5808 5809 5810 5811 5812 5813
5749 5750 5751 5752 5754 5756 5757 5759 5761 5762 5764 5766 5767 5769 5770 5772 5774 5775 5777 5779 5780 5781 5783 5784 5786 5787 5788 5789 5790 5791 5792 5793 5794 5796 5797 5798 5799 5800 5801 5802 5803 5804 5805
5740 5741 5742 5743 5745 5747 5748 5750 5751 5753 5755 5757 5758 5760 5761 5763 5764 5766 5768 5769 5771 5772 5774 5775 5777 5778 5779 5780 5781 5782 5784 5785 5786 5787 5788 5789 5790 5791 5793 5793 5794 5795 5796
5730 5731 5732 5734 5735 5737 5739 5740 5742 5743 5745 5747 5749 5750 5752 5753 5754 5756 5758 5759 5761 5763 5764 5766 5767 5768 5770 5771 5772 5773 5774 5775 5776 5777 5778 5779 5780 5781 5783 5784 5785 5786 5786
5721 5722 5723 5724 5726 5727 5729 5730 5732 5734 5735 5737 5739 5740 5742 5743 5745 5746 5747 5749 5751 5752 5754 5755 5756 5758 5759 5761 5762 5763 5764 5765 5766 5767 5768 5769 5770 5771 5772 5773 5774 5775 5776
5711 5712 5713 5715 5716 5717 5719 5720 5722 5724 5725 5727 5728 5730 5732 5733 5734 5736 5737 5738 5740 5741 5743 5744 5745 5747 5748 5749 5751 5752 5753 5754 5755 5756 5757 5758 5759 5759 5760 5762 5763 5764 5765
5701 5702 5703 5705 5706 5707 5708 5710 5712 5713 5714 5716 5718 5719 5721 5722 5724 5725 5726 5727 5729 5730 5732 5733 5734 5735 5736 5737 5739 5740 5741 5743 5743 5744 5745 5746 5746 5747 5748 5749 5751 5752 5753
5691 5692 5694 5694 5696 5697 5698 5699 5701 5702 5704 5706 5707 5709 5710 5711 5713 5714 5715 5716 5717 5718 5720 5721 5722 5723 5724 5725 5726 5727 5729 5730 5732 5732 5733 5733 5734 5735 5736 5736 5738 5739 5740
5682 5682 5683 5684 5685 5686 5687 5688 5690 5691 5693 5695 5696 5697 5699 5700 5701 5702 5703 5704 5705 5707 5708 5709 5710 5711 5711 5712 5713 5714 5716 5717 5719 5720 5721 5721 5721 5722 5723 5724 5725 5726 5727
5672 5672 5673 5673 5674 5675 5676 5677 5679 5680 5682 5683 5685 5686 5687 5688 5690 5690 5691 5692 5693 5694 5695 5696 5697 5698 5698 5699 5700 5701 5702 5703 5704 5706 5708 5709 5708 5709 5709 5710 5711 5712 5713
5662 5662 5662 5663 5664 5664 5665 5666 5667 5668 5670 5671 5673 5674 5675 5677 5678 5678 5679 5680 5681 5682 5682 5683 5684 5685 5685 5686 5687 5688 5688 5689 5690 5691 5693 5695 5695 5696 5696 5697 5698 5699 5699